• In Uzbekistan
  • List of Countries
  • For 7 days
  • Water Temperature
  • Satellite Maps
  • Weather Map
  • Weather Widgets
  • user-avatar
    Login

    Hourly Weather Barh

    Today, 18 July, Wednesday

    Time Temperature Precipitation Wind Pressure Humidity
    00:00 +34°C° 0 mm 4 mps 744 mmHg 67%
    01:00 +34°C° 0.2 mm 4 mps 744 mmHg 68%
    02:00 +33°C° 0.2 mm 5 mps 744 mmHg 70%
    03:00 +33°C° 0.2 mm 5 mps 744 mmHg 71%
    04:00 +33°C° 0 mm 5 mps 744 mmHg 73%
    05:00 +32°C° 0 mm 4 mps 744 mmHg 74%
    06:00 +32°C° 0 mm 4 mps 744 mmHg 76%
    07:00 +33°C° 0 mm 5 mps 744 mmHg 71%
    08:00 +34°C° 0 mm 5 mps 744 mmHg 67%
    09:00 +35°C° 0 mm 6 mps 745 mmHg 62%
    10:00 +36°C° 0.2 mm 6 mps 744 mmHg 58%
    11:00 +39°C° 0.2 mm 6 mps 744 mmHg 54%
    12:00 +40°C° 0.2 mm 6 mps 744 mmHg 49%
    13:00 +40°C° 0.1 mm 6 mps 743 mmHg 48%
    14:00 +41°C° 0.1 mm 6 mps 742 mmHg 47%
    15:00 +41°C° 0.1 mm 6 mps 742 mmHg 46%
    16:00 +41°C° 0 mm 6 mps 741 mmHg 47%
    17:00 +40°C° 0 mm 6 mps 741 mmHg 48%
    18:00 +40°C° 0 mm 6 mps 741 mmHg 50%
    19:00 +39°C° 0 mm 5 mps 741 mmHg 52%
    20:00 +38°C° 0 mm 4 mps 742 mmHg 55%
    21:00 +37°C° 0 mm 4 mps 742 mmHg 57%
    22:00 +36°C° 0.7 mm 4 mps 742 mmHg 60%
    23:00 +36°C° 0.7 mm 4 mps 742 mmHg 62%

    Tomorrow, 19 July, Thursday

    Time Temperature Precipitation Wind Pressure Humidity
    00:00 +35°C° 0.7 mm 4 mps 743 mmHg 65%
    01:00 +35°C° 1.3 mm 4 mps 743 mmHg 67%
    02:00 +34°C° 1.3 mm 4 mps 742 mmHg 69%
    03:00 +34°C° 1.3 mm 4 mps 742 mmHg 71%
    04:00 +34°C° 0.1 mm 4 mps 742 mmHg 72%
    05:00 +33°C° 0.1 mm 4 mps 742 mmHg 73%
    06:00 +33°C° 0.1 mm 4 mps 743 mmHg 74%
    07:00 +34°C° 0 mm 4 mps 743 mmHg 70%
    08:00 +35°C° 0 mm 5 mps 743 mmHg 66%
    09:00 +36°C° 0 mm 5 mps 744 mmHg 62%
    10:00 +37°C° 0 mm 5 mps 744 mmHg 57%
    11:00 +39°C° 0 mm 6 mps 743 mmHg 52%
    12:00 +40°C° 0 mm 6 mps 743 mmHg 47%
    13:00 +41°C° 0 mm 6 mps 742 mmHg 45%
    14:00 +42°C° 0 mm 6 mps 742 mmHg 43%
    15:00 +42°C° 0 mm 5 mps 741 mmHg 41%
    16:00 +42°C° 0 mm 5 mps 740 mmHg 42%
    17:00 +42°C° 0 mm 5 mps 740 mmHg 43%
    18:00 +41°C° 0 mm 5 mps 740 mmHg 43%
    19:00 +41°C° 0 mm 4 mps 740 mmHg 46%
    20:00 +40°C° 0 mm 4 mps 741 mmHg 49%
    21:00 +38°C° 0 mm 3 mps 742 mmHg 52%
    22:00 +38°C° 0 mm 3 mps 742 mmHg 54%
    23:00 +37°C° 0 mm 3 mps 742 mmHg 56%

    Day after tomorrow, 20 July, Friday

    Time Temperature Precipitation Wind Pressure Humidity
    00:00 +37°C° 0 mm 3 mps 742 mmHg 58%
    01:00 +36°C° 0 mm 2 mps 742 mmHg 60%
    02:00 +36°C° 0 mm 2 mps 742 mmHg 62%
    03:00 +35°C° 0 mm 2 mps 741 mmHg 64%
    04:00 +35°C° 0 mm 2 mps 741 mmHg 65%
    05:00 +35°C° 0 mm 2 mps 741 mmHg 66%
    06:00 +35°C° 0 mm 2 mps 741 mmHg 68%
    07:00 +36°C° 0 mm 2 mps 742 mmHg 63%
    08:00 +37°C° 0 mm 2 mps 742 mmHg 59%
    09:00 +38°C° 0 mm 3 mps 742 mmHg 55%
    10:00 +39°C° 0 mm 3 mps 742 mmHg 51%
    11:00 +40°C° 0 mm 3 mps 742 mmHg 47%
    12:00 +42°C° 0 mm 3 mps 742 mmHg 43%
    13:00 +42°C° 0 mm 3 mps 741 mmHg 43%
    14:00 +41°C° 0 mm 2 mps 741 mmHg 43%
    15:00 +41°C° 0 mm 2 mps 740 mmHg 42%
    16:00 +41°C° 0 mm 1 mps 740 mmHg 42%
    17:00 +41°C° 0 mm 1 mps 740 mmHg 41%
    18:00 +41°C° 0 mm 1 mps 739 mmHg 41%
    19:00 +40°C° 0 mm 1 mps 740 mmHg 42%
    20:00 +40°C° 0 mm 1 mps 741 mmHg 44%
    21:00 +39°C° 0 mm 1 mps 741 mmHg 46%
    22:00 +39°C° 0 mm 1 mps 741 mmHg 47%
    23:00 +39°C° 0 mm 1 mps 741 mmHg 49%

    21 July, Saturday

    Time Temperature Precipitation Wind Pressure Humidity
    00:00 +38°C° 0 mm 2 mps 742 mmHg 50%
    01:00 +37°C° 0 mm 2 mps 741 mmHg 53%
    02:00 +37°C° 0 mm 3 mps 741 mmHg 56%
    03:00 +36°C° 0 mm 4 mps 741 mmHg 59%
    04:00 +35°C° 0.1 mm 4 mps 741 mmHg 61%
    05:00 +35°C° 0.1 mm 4 mps 741 mmHg 64%
    06:00 +34°C° 0.1 mm 4 mps 741 mmHg 67%
    07:00 +35°C° 0 mm 5 mps 741 mmHg 64%
    08:00 +35°C° 0 mm 5 mps 742 mmHg 62%
    09:00 +36°C° 0 mm 5 mps 742 mmHg 60%
    10:00 +37°C° 0 mm 5 mps 742 mmHg 55%
    11:00 +40°C° 0 mm 5 mps 742 mmHg 51%
    12:00 +41°C° 0 mm 5 mps 742 mmHg 46%
    13:00 +42°C° 0 mm 4 mps 741 mmHg 44%
    14:00 +42°C° 0 mm 4 mps 741 mmHg 43%
    15:00 +43°C° 0 mm 4 mps 740 mmHg 41%
    16:00 +42°C° 0 mm 4 mps 740 mmHg 42%
    17:00 +42°C° 0 mm 4 mps 740 mmHg 42%
    18:00 +42°C° 0 mm 4 mps 740 mmHg 43%
    19:00 +41°C° 0 mm 4 mps 740 mmHg 45%
    20:00 +39°C° 0 mm 3 mps 741 mmHg 46%
    21:00 +39°C° 0 mm 3 mps 741 mmHg 48%
    22:00 +38°C° 0.1 mm 4 mps 741 mmHg 50%
    23:00 +38°C° 0.1 mm 4 mps 741 mmHg 53%

    22 July, Sunday

    Time Temperature Precipitation Wind Pressure Humidity
    00:00 +37°C° 0.1 mm 5 mps 741 mmHg 55%
    01:00 +36°C° 1.8 mm 5 mps 740 mmHg 60%
    02:00 +35°C° 1.8 mm 4 mps 740 mmHg 65%
    03:00 +34°C° 1.8 mm 4 mps 740 mmHg 69%
    04:00 +34°C° 0.5 mm 4 mps 740 mmHg 71%
    05:00 +34°C° 0.5 mm 4 mps 740 mmHg 72%
    06:00 +34°C° 0.5 mm 4 mps 741 mmHg 73%
    07:00 +34°C° 1.8 mm 4 mps 741 mmHg 71%
    08:00 +35°C° 1.8 mm 4 mps 742 mmHg 69%
    09:00 +35°C° 1.8 mm 4 mps 742 mmHg 67%
    10:00 +36°C° 2.5 mm 3 mps 742 mmHg 66%
    11:00 +36°C° 2.5 mm 3 mps 742 mmHg 65%
    12:00 +36°C° 2.5 mm 2 mps 742 mmHg 64%
    13:00 +36°C° 2.7 mm 2 mps 742 mmHg 64%
    14:00 +36°C° 2.7 mm 2 mps 741 mmHg 64%
    15:00 +36°C° 2.7 mm 2 mps 740 mmHg 64%
    16:00 +36°C° 0.3 mm 2 mps 740 mmHg 62%
    17:00 +37°C° 0.3 mm 2 mps 740 mmHg 60%
    18:00 +37°C° 0.3 mm 2 mps 740 mmHg 58%
    19:00 +36°C° 0.6 mm 2 mps 740 mmHg 61%
    20:00 +35°C° 0.6 mm 2 mps 741 mmHg 65%
    21:00 +35°C° 0.6 mm 2 mps 741 mmHg 69%
    22:00 +34°C° 1.4 mm 3 mps 741 mmHg 71%
    23:00 +33°C° 1.4 mm 4 mps 742 mmHg 74%

    23 July, Monday

    Time Temperature Precipitation Wind Pressure Humidity
    00:00 +32°C° 1.4 mm 4 mps 742 mmHg 77%
    01:00 +32°C° 0.3 mm 5 mps 742 mmHg 77%
    02:00 +32°C° 0.3 mm 6 mps 741 mmHg 77%
    03:00 +30°C° 0.3 mm 6 mps 741 mmHg 77%
    04:00 +30°C° 0 mm 7 mps 741 mmHg 77%
    05:00 +30°C° 0 mm 7 mps 742 mmHg 78%
    06:00 +30°C° 0 mm 7 mps 742 mmHg 78%
    07:00 +32°C° 0 mm 8 mps 742 mmHg 74%
    08:00 +33°C° 0 mm 8 mps 743 mmHg 70%
    09:00 +34°C° 0 mm 9 mps 743 mmHg 66%
    10:00 +35°C° 0 mm 9 mps 743 mmHg 63%
    11:00 +35°C° 0 mm 9 mps 743 mmHg 59%
    12:00 +37°C° 0 mm 9 mps 743 mmHg 55%
    13:00 +38°C° 0 mm 9 mps 742 mmHg 53%
    14:00 +39°C° 0 mm 9 mps 741 mmHg 51%
    15:00 +39°C° 0 mm 9 mps 741 mmHg 48%
    16:00 +38°C° 0.2 mm 9 mps 741 mmHg 52%
    17:00 +38°C° 0.2 mm 8 mps 741 mmHg 55%
    18:00 +37°C° 0.2 mm 8 mps 740 mmHg 58%
    19:00 +35°C° 0 mm 8 mps 741 mmHg 62%
    20:00 +34°C° 0 mm 7 mps 742 mmHg 66%
    21:00 +33°C° 0 mm 7 mps 742 mmHg 70%
    22:00 +32°C° 0 mm 7 mps 742 mmHg 72%
    23:00 +32°C° 0 mm 7 mps 742 mmHg 73%
    Show more